Location: Conflandey
(47.7287°N, 6.0456°E)
Time: 02:54:07
(UTC+00:00)

Cosmos 1544 Rocket - Pass Details

Date: 24 October 2021
Orbit: 603 x 632 km, 82.5° (Epoch: 28 November)

Event Time Altitude Azimuth Distance (km) Brightness Sun altitude
Rises 17:20:07 0° 173° (S) 2,911 7.0 -8.9°
Reaches altitude 10° 17:22:24 10° 168° (SSE) 2,009 6.1 -9.3°
Maximum altitude 17:26:41 49° 94° (E) 819 3.8 -10.0°
Drops below altitude 10° 17:31:01 10° 20° (NNE) 2,020 5.9 -10.7°
Sets 17:33:18 0° 15° (NNE) 2,930 6.8 -11.1°
